Sturgeon Bay, WI

5:31 AM CST on February 10, 2016 (GMT -0600)
Door County Cherryland

Weather History for KSUE - July, 2012

Change the Weather History Date:

Monday, July 16, 2012

  Actual Average (KGRB) Record (KGRB)
Temperature  
Mean Temperature 84 °F 69 °F  
Max Temperature 96 °F 80 °F 100 °F (1931)
Min Temperature 71 °F 59 °F 45 °F (1966)
Degree Days  
Heating Degree Days 0 1  
Month to date heating degree days 16  
Since 1 June heating degree days 108  
Since 1 July heating degree days 16  
Cooling Degree Days 18 5  
Month to date cooling degree days 80  
Year to date cooling degree days 181  
Since 1 June cooling degree days 163  
Growing Degree Days 34 (Base 50)    
Moisture  
Dew Point 65 °F    
Average Humidity 55    
Maximum Humidity 83    
Minimum Humidity 32    
Precipitation  
Precipitation 0.00 in 0.12 in 1.41 in (1927)
Month to date precipitation 1.87  
Year to date precipitation 15.40  
Snow  
Snow 0.00 in 0.00 in 0.00 in ()
Month to date snowfall 0.0  
Since 1 June snowfall 0.0  
Since 1 July snowfall 0.0  
Snow Depth -    
Sea Level Pressure  
Sea Level Pressure 29.85 in    
Wind  
Wind Speed 10 mph (SW)    
Max Wind Speed 21 mph    
Max Gust Speed 30 mph    
Visibility 10 miles    
Events      
T = Trace of Precipitation, MM = Missing Value Source: NWS Daily Summary

Daily Weather History Graph

Daily Weather History Graph

Search for Another Location

Airport or City:

Trip Planner

Search our weather history database for the weather conditions in past years. The results will help you decide how hot, cold, wet, or windy it might be!

Date:

Astronomy

Jul. 16, 2012 Rise Set
Actual Time 5:19 AM CDT 8:31 PM CDT
Civil Twilight 4:43 AM CDT 9:07 PM CDT
Nautical Twilight 3:57 AM CDT 9:53 PM CDT
Astronomical Twilight 3:00 AM CDT 10:49 PM CDT
Moon 3:02 AM CDT (7/16) 6:36 PM CDT (7/16)
Length of Visible Light 16h 23m
Length of Day
15h 12m
Waning Crescent, 6% of the Moon is Illuminated
Jul 16
Waning Crescent
Jul 18
New
Jul 26
First Quarter
Aug 1
Full
Aug 9
Last Quarter

Hourly Weather History & Observations

Time (CDT) Temp. Heat Index Dew Point Humidity Pressure Visibility Wind Dir Wind Speed Gust Speed Precip Events Conditions
12:15 AM 71.6 °F - 66.2 °F 83% 29.99 in 10.0 mi South 8.1 mph - N/A   Clear
12:35 AM 71.6 °F - 64.4 °F 78% 29.99 in 10.0 mi South 8.1 mph - N/A   Clear
12:55 AM 73.4 °F - 64.4 °F 73% 29.99 in 10.0 mi South 8.1 mph - N/A   Clear
1:15 AM 73.4 °F - 64.4 °F 73% 29.98 in 10.0 mi South 8.1 mph - N/A   Clear
1:35 AM 73.4 °F - 64.4 °F 73% 29.98 in 10.0 mi South 10.4 mph - N/A   Clear
1:55 AM 73.4 °F - 64.4 °F 73% 29.98 in 10.0 mi South 9.2 mph - N/A   Clear
2:15 AM 73.4 °F - 64.4 °F 73% 29.98 in 10.0 mi South 9.2 mph - N/A   Clear
2:35 AM 71.6 °F - 64.4 °F 78% 29.98 in 10.0 mi SSW 6.9 mph - N/A   Clear
2:55 AM 71.6 °F - 64.4 °F 78% 29.97 in 10.0 mi SSW 6.9 mph - N/A   Clear
3:15 AM 71.6 °F - 64.4 °F 78% 29.97 in 10.0 mi SSW 5.8 mph - N/A   Clear
3:35 AM 71.6 °F - 64.4 °F 78% 29.96 in 10.0 mi SSW 8.1 mph - N/A   Clear
3:55 AM 71.6 °F - 64.4 °F 78% 29.95 in 10.0 mi South 8.1 mph - N/A   Clear
4:15 AM 71.6 °F - 64.4 °F 78% 29.94 in 10.0 mi South 8.1 mph - N/A   Clear
4:35 AM 73.4 °F - 64.4 °F 73% 29.94 in 10.0 mi South 9.2 mph - N/A   Clear
4:55 AM 73.4 °F - 64.4 °F 73% 29.93 in 10.0 mi South 8.1 mph - N/A   Clear
5:15 AM 71.6 °F - 64.4 °F 78% 29.93 in 10.0 mi SSW 6.9 mph - N/A   Clear
5:35 AM 71.6 °F - 64.4 °F 78% 29.93 in 10.0 mi SSW 5.8 mph - N/A   Clear
5:55 AM 71.6 °F - 64.4 °F 78% 29.93 in 10.0 mi SSW 4.6 mph - N/A   Clear
6:15 AM 71.6 °F - 64.4 °F 78% 29.93 in 10.0 mi SSW 5.8 mph - N/A   Clear
6:35 AM 71.6 °F - 64.4 °F 78% 29.94 in 10.0 mi SSW 5.8 mph - N/A   Clear
6:55 AM 73.4 °F - 66.2 °F 78% 29.94 in 10.0 mi SSW 4.6 mph - N/A   Clear
7:15 AM 73.4 °F - 66.2 °F 78% 29.93 in 10.0 mi SW 5.8 mph - N/A   Clear
7:35 AM 75.2 °F - 68.0 °F 78% 29.93 in 10.0 mi SSW 5.8 mph - N/A   Clear
7:55 AM 78.8 °F - 68.0 °F 69% 29.93 in 10.0 mi SW 8.1 mph - N/A   Clear
8:15 AM 78.8 °F - 69.8 °F 74% 29.93 in 10.0 mi SW 8.1 mph - N/A   Clear
8:35 AM 78.8 °F - 69.8 °F 74% 29.93 in 10.0 mi WSW 5.8 mph - N/A   Clear
8:55 AM 80.6 °F 83.2 °F 68.0 °F 65% 29.93 in 10.0 mi SW 5.8 mph - N/A   Clear
9:15 AM 82.4 °F 85.4 °F 68.0 °F 62% 29.93 in 10.0 mi SW 8.1 mph - N/A   Clear
9:35 AM 84.2 °F 86.6 °F 66.2 °F 55% 29.93 in 10.0 mi West 9.2 mph - N/A   Clear
9:55 AM 84.2 °F 86.6 °F 66.2 °F 55% 29.92 in 10.0 mi WSW 13.8 mph 18.4 mph N/A   Clear
10:15 AM 86.0 °F 88.2 °F 66.2 °F 51% 29.92 in 10.0 mi WSW 13.8 mph - N/A   Clear
10:35 AM 87.8 °F 90.4 °F 66.2 °F 49% 29.92 in 10.0 mi West 11.5 mph - N/A   Clear
10:55 AM 87.8 °F 90.4 °F 66.2 °F 49% 29.91 in 10.0 mi West 10.4 mph 16.1 mph N/A   Clear
11:15 AM 87.8 °F 91.4 °F 68.0 °F 52% 29.90 in 10.0 mi West 10.4 mph 16.1 mph N/A   Clear
11:35 AM 89.6 °F 93.4 °F 68.0 °F 49% 29.89 in 10.0 mi WSW 10.4 mph 17.3 mph N/A   Clear
11:55 AM 89.6 °F 93.4 °F 68.0 °F 49% 29.88 in 10.0 mi WSW 11.5 mph - N/A   Clear
12:15 PM 89.6 °F 93.4 °F 68.0 °F 49% 29.88 in 10.0 mi West 9.2 mph - N/A   Clear
12:35 PM 89.6 °F 93.4 °F 68.0 °F 49% 29.87 in 10.0 mi WSW 10.4 mph - N/A   Clear
12:55 PM 91.4 °F 94.0 °F 66.2 °F 43% 29.86 in 10.0 mi SW 11.5 mph - N/A   Clear
1:15 PM 91.4 °F 95.4 °F 68.0 °F 46% 29.85 in 10.0 mi SW 12.7 mph 18.4 mph N/A   Clear
1:35 PM 93.2 °F 96.2 °F 66.2 °F 41% 29.83 in 10.0 mi SW 17.3 mph - N/A   Clear
1:55 PM 95.0 °F 98.5 °F 66.2 °F 39% 29.82 in 10.0 mi WSW 13.8 mph 20.7 mph N/A   Clear
2:35 PM 96.8 °F 100.7 °F 66.2 °F 37% 29.80 in 10.0 mi WSW 15.0 mph 20.7 mph N/A   Clear
2:55 PM 95.0 °F 97.0 °F 64.4 °F 36% 29.79 in 10.0 mi WSW 20.7 mph 26.5 mph N/A   Clear
3:15 PM 96.8 °F 99.0 °F 64.4 °F 34% 29.79 in 10.0 mi WSW 17.3 mph 26.5 mph N/A   Clear
3:35 PM 96.8 °F 99.0 °F 64.4 °F 34% 29.77 in 10.0 mi WSW 17.3 mph 29.9 mph N/A   Clear
3:55 PM 96.8 °F 98.0 °F 62.6 °F 32% 29.76 in 10.0 mi WSW 19.6 mph 27.6 mph N/A   Clear
4:15 PM 96.8 °F 98.0 °F 62.6 °F 32% 29.75 in 10.0 mi WSW 18.4 mph 28.8 mph N/A   Clear
4:35 PM 96.8 °F 99.0 °F 64.4 °F 34% 29.75 in 10.0 mi WSW 17.3 mph 23.0 mph N/A   Clear
4:55 PM 96.8 °F 98.0 °F 62.6 °F 32% 29.74 in 10.0 mi SW 17.3 mph 23.0 mph N/A   Clear
5:15 PM 96.8 °F 98.0 °F 62.6 °F 32% 29.73 in 10.0 mi SW 18.4 mph 23.0 mph N/A   Clear
5:35 PM 96.8 °F 98.0 °F 62.6 °F 32% 29.73 in 10.0 mi WSW 17.3 mph 27.6 mph N/A   Clear
5:55 PM 96.8 °F 98.0 °F 62.6 °F 32% 29.73 in 10.0 mi WSW 18.4 mph 29.9 mph N/A   Clear
6:15 PM 95.0 °F 96.0 °F 62.6 °F 34% 29.72 in 10.0 mi WSW 19.6 mph 27.6 mph N/A   Clear
6:35 PM 95.0 °F 96.0 °F 62.6 °F 34% 29.72 in 10.0 mi SW 13.8 mph 24.2 mph N/A   Clear
7:15 PM 93.2 °F 94.9 °F 64.4 °F 38% 29.72 in 10.0 mi WSW 12.7 mph - N/A   Clear
7:35 PM 91.4 °F 93.2 °F 64.4 °F 41% 29.72 in 10.0 mi WSW 11.5 mph - N/A   Clear
7:55 PM 91.4 °F 93.2 °F 64.4 °F 41% 29.72 in 10.0 mi SW 10.4 mph - N/A   Clear
8:15 PM 89.6 °F 91.1 °F 64.4 °F 43% 29.72 in 10.0 mi SW 8.1 mph - N/A   Clear
8:35 PM 87.8 °F 89.4 °F 64.4 °F 46% 29.72 in 10.0 mi SW 8.1 mph - N/A   Clear
8:55 PM 87.8 °F 89.4 °F 64.4 °F 46% 29.73 in 10.0 mi SW 10.4 mph - N/A   Clear
9:15 PM 87.8 °F 89.4 °F 64.4 °F 46% 29.74 in 10.0 mi WSW 8.1 mph - N/A   Clear
9:35 PM 87.8 °F 88.5 °F 62.6 °F 43% 29.74 in 10.0 mi SW 10.4 mph - N/A   Clear
9:55 PM 87.8 °F 88.5 °F 62.6 °F 43% 29.74 in 10.0 mi WSW 10.4 mph - N/A   Clear
10:15 PM 87.8 °F 88.5 °F 62.6 °F 43% 29.74 in 10.0 mi WSW 10.4 mph - N/A   Clear
10:35 PM 87.8 °F 87.6 °F 60.8 °F 40% 29.74 in 10.0 mi WSW 10.4 mph - N/A   Clear
10:55 PM 87.8 °F 87.6 °F 60.8 °F 40% 29.74 in 10.0 mi WSW 10.4 mph - N/A   Clear
11:15 PM 86.0 °F 86.6 °F 62.6 °F 45% 29.73 in 10.0 mi WSW 13.8 mph - N/A   Clear
11:35 PM 86.0 °F 86.6 °F 62.6 °F 45% 29.73 in 10.0 mi SW 15.0 mph 18.4 mph N/A   Clear
11:55 PM 86.0 °F 86.6 °F 62.6 °F 45% 29.73 in 10.0 mi WSW 15.0 mph 19.6 mph N/A   Clear